Vancouver, WA
on Sunday, December 9, 2012

Sunday
Previous Day Next Day
Daily Summary
 ActualAverageRecord
Temperature
Mean Temperature °F 41°F  
Max Temperature 49°F 47°F 60°F (2004)
Min Temperature 40°F 35°F 10°F (2009)
Degree Days
Heating Degree Days 20    
Month to date heating degree days 166  
Since 1 July heating degree days 988  
Cooling Degree Days 0    
Month to date cooling degree days 0  
Year to date cooling degree days 398  
Moisture
Dew Point 40°F   
Average Humidity 88    
Maximum Humidity 93    
Minimum Humidity 83    
Precipitation
Precipitation 0.08 in 0.21 in 1.37 in (1929)
Month to date precipitation 2.45 1.82  
Year to date precipitation 40.77 34.19  
Snow
Snow 0.00 in in in ()
Month to date snowfall  
Since 1 July snowfall 0.0  
Snow Depth 0.00 in   
Wind
Wind Speed 4 mph   
Max Wind Speed 8 mph   
Max Gust Speed 10 mph   
Visibility 8 miles   
Events Rain   

Key: T is trace of precipitation, MM is missing value
Source: NWS Daily Summary
Time(PST)TemperatureDew PointHumidity Pressure Visibility Wind DirectionWind SpeedGust SpeedPrecipitationEvents Conditions
12:53 AM 41.0°F 37.9°F 89% 30.37 in 9.0 miles Calm Calm - 0.00 in   Overcast
1:09 AM 41.0°F 39.2°F 93% 30.37 in 8.0 miles Calm Calm - N/A   Overcast
1:38 AM 41.0°F 37.4°F 87% 30.37 in 10.0 miles Calm Calm - N/A   Mostly Cloudy
1:53 AM 41.0°F 37.9°F 89% 30.38 in 8.0 miles Calm Calm - N/A   Overcast
2:35 AM 39.2°F 37.4°F 93% 30.38 in 10.0 miles Calm Calm - 0.00 in Rain Light Rain
2:50 AM 41.0°F 37.4°F 87% 30.38 in 10.0 miles Calm Calm - 0.00 in   Overcast
2:53 AM 41.0°F 37.9°F 89% 30.39 in 10.0 miles Calm Calm - 0.00 in   Overcast
3:24 AM 41.0°F 37.4°F 87% 30.39 in 10.0 miles Calm Calm - N/A   Overcast
3:41 AM 41.0°F 37.4°F 87% 30.39 in 10.0 miles ENE 3.5 mph - N/A   Overcast
3:53 AM 41.0°F 37.9°F 89% 30.39 in 10.0 miles Calm Calm - N/A   Overcast
4:02 AM 41.0°F 37.4°F 87% 30.39 in 10.0 miles Calm Calm - N/A   Overcast
4:32 AM 41.0°F 37.4°F 87% 30.40 in 10.0 miles Calm Calm - N/A   Overcast
4:53 AM 41.0°F 37.9°F 89% 30.40 in 10.0 miles East 3.5 mph - N/A   Overcast
5:23 AM 41.0°F 37.4°F 87% 30.39 in 10.0 miles SE 3.5 mph - N/A   Overcast
5:53 AM 41.0°F 37.9°F 89% 30.40 in 10.0 miles ESE 4.6 mph - N/A   Overcast
6:06 AM 42.8°F 37.4°F 81% 30.40 in 10.0 miles East 4.6 mph - N/A   Overcast
6:53 AM 41.0°F 39.0°F 93% 30.39 in 10.0 miles ESE 3.5 mph - N/A   Overcast
7:17 AM 42.8°F 39.2°F 87% 30.39 in 10.0 miles East 4.6 mph - N/A   Overcast
7:53 AM 42.1°F 39.0°F 89% 30.41 in 10.0 miles East 3.5 mph - N/A   Overcast
8:24 AM 42.8°F 39.2°F 87% 30.41 in 6.0 miles East 3.5 mph - N/A   Overcast
8:33 AM 42.8°F 39.2°F 87% 30.41 in 7.0 miles East 3.5 mph - N/A   Overcast
8:41 AM 42.8°F 39.2°F 87% 30.40 in 8.0 miles East 4.6 mph - N/A   Overcast
8:53 AM 42.1°F 39.0°F 89% 30.41 in 10.0 miles East 4.6 mph - N/A   Overcast
9:46 AM 42.8°F 39.2°F 87% 30.40 in 10.0 miles ESE 5.8 mph - N/A   Overcast
9:53 AM 44.1°F 39.9°F 85% 30.40 in 10.0 miles ESE 8.1 mph - N/A   Overcast
10:30 AM 44.6°F 39.2°F 81% 30.41 in 10.0 miles SE 4.6 mph - N/A   Overcast
10:53 AM 44.1°F 39.9°F 85% 30.40 in 10.0 miles ESE 5.8 mph - N/A   Overcast
11:39 AM 44.6°F 41.0°F 87% 30.38 in 10.0 miles ESE 6.9 mph - N/A   Overcast
11:46 AM 44.6°F 41.0°F 87% 30.38 in 10.0 miles ESE 5.8 mph - N/A   Overcast
11:53 AM 45.0°F 41.0°F 86% 30.38 in 10.0 miles ESE 8.1 mph - N/A   Overcast
12:23 PM 44.6°F 41.0°F 87% 30.38 in 10.0 miles ESE 6.9 mph - N/A   Overcast
12:33 PM 44.6°F 41.0°F 87% 30.37 in 10.0 miles ESE 6.9 mph - N/A   Overcast
12:53 PM 45.0°F 41.0°F 86% 30.37 in 9.0 miles ESE 5.8 mph - N/A   Overcast
1:49 PM 44.6°F 41.0°F 87% 30.36 in 4.0 miles ESE 5.8 mph - 0.00 in   Overcast
1:53 PM 44.1°F 42.1°F 93% 30.36 in 3.0 miles ESE 5.8 mph - 0.00 in   Overcast
2:08 PM 44.6°F 42.8°F 93% 30.36 in 2.5 miles ESE 4.6 mph - N/A   Overcast
2:23 PM 44.6°F 42.8°F 93% 30.36 in 2.5 miles East 5.8 mph - 0.01 in Rain Light Rain
2:35 PM 44.6°F 42.8°F 93% 30.36 in 3.0 miles East 4.6 mph - 0.01 in Rain Light Rain
2:53 PM 44.1°F 42.1°F 93% 30.35 in 4.0 miles ESE 5.8 mph - 0.01 in   Overcast
3:53 PM 45.0°F 43.0°F 93% 30.35 in 3.0 miles East 4.6 mph - 0.01 in   Overcast
4:53 PM 45.0°F 43.0°F 93% 30.35 in 10.0 miles ESE 5.8 mph - N/A   Overcast
5:53 PM 46.0°F 44.1°F 93% 30.36 in 6.0 miles ESE 3.5 mph - 0.01 in Rain Light Rain
6:53 PM 46.0°F 44.1°F 93% 30.36 in 6.0 miles East 4.6 mph - 0.04 in Rain Light Rain
7:32 PM 46.4°F 44.6°F 93% 30.36 in 9.0 miles ESE 4.6 mph - 0.01 in   Overcast
7:53 PM 46.0°F 44.1°F 93% 30.36 in 10.0 miles ESE 3.5 mph - 0.01 in Rain Light Rain
8:53 PM 46.9°F 45.0°F 93% 30.35 in 10.0 miles SE 3.5 mph - 0.00 in   Overcast
9:53 PM 48.0°F 45.0°F 89% 30.36 in 10.0 miles South 3.5 mph - N/A   Overcast
10:53 PM 48.0°F 45.0°F 89% 30.38 in 10.0 miles Calm Calm - N/A   Overcast
11:53 PM 48.0°F 46.0°F 93% 30.38 in 10.0 miles SE 3.5 mph - N/A   Overcast
Moon Phase
Dec. 09 Dec. 13 Dec. 20 Dec. 28 Jan. 04
Sunrise:07:39 AM (PST) Moon Rise:03:09 AM (PST)12/9
Sunset:04:26 PM (PST) Moon Set:01:44 PM (PST)12/9

Copyright © 2014 The Weather Underground, Inc.